Location: *
(50.0228°S, 177.2688°W)
Time: 03:48:38
(UTC+00:00)

Cosmos 1908 - Pass Details

Date: 07 April 2020
Orbit: 511 x 531 km, 82.5° (Epoch: 04 June)

Event Time Altitude Azimuth Distance (km) Brightness Sun altitude
Rises 06:25:05 0° 188° (S) 2,675 7.0 -10.8°
Reaches altitude 10° 06:27:16 10° 185° (S) 1,778 6.0 -11.2°
Maximum altitude 06:31:09 67° 102° (ESE) 572 3.1 -11.8°
Drops below altitude 10° 06:34:59 10° 18° (NNE) 1,752 5.7 -12.4°
Sets 06:37:06 0° 15° (NNE) 2,632 6.6 -12.8°
